N1UNH Weather Reports


time (UTC)temp
C
wind
direction
speed
KPH
gust
KPH
rain 1hr
cm
rain 24hr
cm
rain mn
cm
humidity
%
barometer
mb
20260504212531 22 182 1.6 1.6 0.00 0.00 0.00 28 1011.0
20260504212028 22 182 6.4 6.4 0.00 0.00 0.00 28 1011.0
20260504211525 22 182 4.8 4.8 0.00 0.00 0.00 28 1011.0
20260504211022 22 182 1.6 3.2 0.00 0.00 0.00 29 1011.1
20260504210519 22 182 3.2 3.2 0.00 0.00 0.00 28 1011.1
20260504210016 21 182 3.2 3.2 0.00 0.00 0.00 30 1011.0
20260504205514 21 182 3.2 4.8 0.00 0.00 0.00 28 1011.1
20260504205012 21 182 3.2 3.2 0.00 0.00 0.00 29 1011.2
20260504204509 21 182 3.2 3.2 0.00 0.00 0.00 31 1011.2
20260504204008 22 181 3.2 3.2 0.00 0.00 0.00 29 1011.1
20260504203506 22 182 4.8 4.8 0.00 0.00 0.00 28 1011.1
20260504203002 22 182 3.2 4.8 0.00 0.00 0.00 28 1010.8
20260504202458 23 183 1.6 1.6 0.00 0.00 0.00 29 1011.2
20260504201955 22 182 0.0 1.6 0.00 0.00 0.00 27 1011.0
20260504201452 22 182 3.2 1.6 0.00 0.00 0.00 29 1011.1
20260504200950 22 183 1.6 3.2 0.00 0.00 0.00 28 1011.2
20260504200447 22 182 6.4 6.4 0.00 0.00 0.00 28 1011.1
20260504195943 22 182 1.6 1.6 0.00 0.00 0.00 28 1011.1
20260504195439 21 183 0.0 0.0 0.00 0.00 0.00 30 1011.3
20260504194936 22 181 3.2 3.2 0.00 0.00 0.00 28 1011.0
20260504194432 22 182 4.8 4.8 0.00 0.00 0.00 28 1011.1
20260504193928 21 182 1.6 3.2 0.00 0.00 0.00 29 1011.1
20260504193425 22 182 1.6 1.6 0.00 0.00 0.00 28 1011.1
20260504192924 21 183 0.0 1.6 0.00 0.00 0.00 31 1011.2
20260504192421 20 183 1.6 1.6 0.00 0.00 0.00 30 1011.2
20260504191920 20 182 1.6 3.2 0.00 0.00 0.00 30 1011.2
20260504191418 21 182 4.8 4.8 0.00 0.00 0.00 29 1011.3
20260504190912 20 183 3.2 3.2 0.00 0.00 0.00 30 1011.4
20260504190408 21 182 6.4 11.3 0.00 0.00 0.00 30 1011.3
20260504185905 21 182 0.0 1.6 0.00 0.00 0.00 30 1011.3
20260504185402 22 182 3.2 3.2 0.00 0.00 0.00 27 1011.3
20260504184858 22 183 1.6 1.6 0.00 0.00 0.00 29 1011.2
20260504184354 21 183 1.6 1.6 0.00 0.00 0.00 28 1011.2
20260504183850 21 182 3.2 3.2 0.00 0.00 0.00 29 1011.4
20260504183348 20 183 6.4 9.7 0.00 0.00 0.00 29 1011.2
20260504182845 20 182 1.6 3.2 0.00 0.00 0.00 32 1011.5
20260504182343 20 182 3.2 4.8 0.00 0.00 0.00 32 1011.4
20260504181839 19 181 3.2 3.2 0.00 0.00 0.00 31 1011.7
20260504181337 20 181 6.4 6.4 0.00 0.00 0.00 31 1011.6
20260504180835 20 181 1.6 1.6 0.00 0.00 0.00 34 1011.6
20260504180333 20 181 1.6 1.6 0.00 0.00 0.00 30 1011.6
20260504175832 20 182 1.6 1.6 0.00 0.00 0.00 34 1011.6
20260504175328 20 182 6.4 6.4 0.00 0.00 0.00 30 1011.7
20260504174826 20 182 1.6 1.6 0.00 0.00 0.00 30 1011.7
20260504174323 20 181 3.2 3.2 0.00 0.00 0.00 30 1011.7
20260504173820 20 181 6.4 6.4 0.00 0.00 0.00 28 1011.8
20260504173317 21 182 11.3 12.9 0.00 0.00 0.00 28 1011.9
20260504172814 21 183 3.2 6.4 0.00 0.00 0.00 27 1012.0
20260504172310 21 182 1.6 3.2 0.00 0.00 0.00 29 1011.9
20260504171806 20 183 1.6 3.2 0.00 0.00 0.00 29 1011.8
20260504171304 20 182 1.6 1.6 0.00 0.00 0.00 29 1011.9
20260504170801 20 183 1.6 1.6 0.00 0.00 0.00 31 1011.6
20260504170258 20 182 14.5 14.5 0.00 0.00 0.00 28 1011.9
20260504160216 18 182 1.6 3.2 0.00 0.00 0.00 31 1012.2
20260504151144 18 160 1.6 1.6 0.00 0.00 0.00 34 1012.6
20260504150641 18 160 3.2 4.8 0.00 0.00 0.00 33 1012.7
20260504150138 18 160 9.7 11.3 0.00 0.00 0.00 34 1012.5
20260504141107 15 160 6.4 6.4 0.00 0.00 0.00 37 1013.3
20260504140603 15 160 4.8 4.8 0.00 0.00 0.00 37 1013.3
20260504130527 13 159 1.6 1.6 0.00 0.00 0.00 43 1014.2
20260504110415 5 159 0.0 0.0 0.00 0.00 0.00 84 1014.8
20260504100332 5 131 0.0 0.0 0.00 0.00 0.00 77 1014.8
20260504081726 4 131 0.0 0.0 0.00 0.00 0.00 79 1014.6
20260504081222 4 131 0.0 0.0 0.00 0.00 0.00 81 1014.5
20260504080719 4 131 0.0 0.0 0.00 0.00 0.00 79 1014.7
20260504080215 4 131 0.0 0.0 0.00 0.00 0.00 82 1014.7
20260504070143 3 131 0.0 0.0 0.00 0.00 0.00 81 1014.5
20260504060104 3 131 0.0 0.0 0.00 0.00 0.00 83 1014.7
20260504050532 1 131 0.0 0.0 0.00 0.00 0.00 83 1014.9
20260504045525 1 131 0.0 0.0 0.00 0.00 0.00 80 1015.0
20260504045021 1 131 0.0 0.0 0.00 0.00 0.00 79 1014.8
20260504044518 1 131 0.0 0.0 0.00 0.00 0.00 79 1015.1
20260504044015 1 131 0.0 0.0 0.00 0.00 0.00 82 1014.8
20260504043512 1 131 0.0 0.0 0.00 0.00 0.00 80 1014.7
20260504043010 1 131 0.0 0.0 0.00 0.00 0.00 82 1014.8
20260504042506 1 131 0.0 0.0 0.00 0.00 0.00 78 1014.7
20260504042003 1 131 0.0 0.0 0.00 0.00 0.00 80 1014.7
20260504041459 1 131 0.0 0.0 0.00 0.00 0.00 82 1014.9
20260504040955 1 131 0.0 0.0 0.00 0.00 0.00 83 1014.7
20260504040453 1 131 0.0 0.0 0.00 0.00 0.00 82 1014.6
20260504035949 1 131 0.0 0.0 0.00 0.05 0.05 82 1014.5
20260504035447 1 131 0.0 0.0 0.00 0.05 0.05 80 1014.7
20260504034943 1 131 0.0 0.0 0.00 0.05 0.05 81 1014.8
20260504034441 2 131 0.0 0.0 0.00 0.05 0.05 82 1014.8
20260504033937 2 131 0.0 0.0 0.00 0.05 0.05 82 1014.8
20260504033435 2 131 0.0 0.0 0.00 0.05 0.05 80 1014.6
20260504032932 1 131 0.0 0.0 0.00 0.05 0.05 80 1014.5
20260504032429 1 131 0.0 0.0 0.00 0.05 0.05 81 1014.6
20260504031926 1 131 0.0 0.0 0.00 0.05 0.05 80 1014.5
20260504031423 1 131 0.0 0.0 0.00 0.05 0.05 80 1014.4
20260504030920 1 131 1.6 1.6 0.00 0.05 0.05 80 1014.5
20260504030417 1 131 0.0 0.0 0.00 0.05 0.05 81 1014.4
20260504025912 1 131 0.0 0.0 0.00 0.05 0.05 81 1014.6
20260504025409 1 131 0.0 0.0 0.00 0.05 0.05 80 1014.5
20260504024906 1 131 0.0 0.0 0.00 0.05 0.05 79 1014.6
20260504024403 1 131 0.0 0.0 0.00 0.05 0.05 78 1014.6
20260504023901 1 131 0.0 0.0 0.00 0.05 0.05 78 1014.6
20260504023356 2 131 0.0 0.0 0.00 0.05 0.05 77 1014.7
20260504022852 2 131 0.0 0.0 0.00 0.05 0.05 76 1014.5
20260504022349 2 131 0.0 0.0 0.00 0.05 0.05 78 1014.5
20260504021845 2 131 0.0 0.0 0.00 0.05 0.05 76 1014.5
20260504021343 2 131 0.0 0.0 0.00 0.05 0.05 76 1014.6
20260504020839 2 131 0.0 0.0 0.00 0.05 0.05 76 1014.7
20260504020337 2 131 0.0 0.0 0.00 0.05 0.05 75 1014.5
20260504015833 2 131 0.0 0.0 0.00 0.05 0.05 74 1014.4
20260504015329 2 131 0.0 0.0 0.00 0.05 0.05 74 1014.3
20260504014825 2 131 0.0 0.0 0.00 0.05 0.05 74 1014.5
20260504014321 2 131 0.0 0.0 0.00 0.05 0.05 74 1014.7
20260504013819 3 131 0.0 0.0 0.00 0.05 0.05 73 1014.4
20260504013317 3 131 0.0 0.0 0.00 0.05 0.05 75 1014.6
20260504012813 3 131 0.0 0.0 0.00 0.05 0.05 74 1014.4
20260504012311 3 131 0.0 0.0 0.00 0.05 0.05 73 1014.3
20260504011808 3 131 0.0 0.0 0.00 0.05 0.05 73 1014.3
20260504011305 3 131 0.0 0.0 0.00 0.05 0.05 71 1014.5
20260504010800 3 131 0.0 0.0 0.00 0.05 0.05 69 1014.3
20260504010255 3 131 0.0 0.0 0.00 0.05 0.05 69 1014.2
20260504005753 4 131 0.0 0.0 0.00 0.05 0.05 70 1014.3
20260504005250 4 131 0.0 0.0 0.00 0.05 0.05 69 1014.3
20260504004748 4 131 0.0 0.0 0.00 0.05 0.05 69 1013.9
20260504004245 4 131 0.0 0.0 0.00 0.05 0.05 71 1013.9
20260504003741 5 131 0.0 0.0 0.00 0.05 0.05 70 1013.9
20260504003238 5 131 0.0 0.0 0.00 0.05 0.05 69 1013.5
20260504002735 5 131 0.0 0.0 0.00 0.05 0.05 66 1013.6
20260504002232 5 131 0.0 0.0 0.00 0.05 0.05 66 1013.6
20260504001730 5 131 0.0 0.0 0.00 0.05 0.05 65 1013.5
20260504001226 5 131 1.6 1.6 0.00 0.05 0.05 69 1013.3
20260504000723 6 131 0.0 0.0 0.00 0.05 0.05 67 1013.6
20260504000220 6 131 0.0 0.0 0.00 0.05 0.05 67 1013.6
20260503235718 6 131 0.0 0.0 0.00 0.05 0.05 64 1013.2
20260503235215 6 131 0.0 0.0 0.00 0.05 0.05 62 1013.3
20260503234713 7 131 0.0 0.0 0.00 0.05 0.05 57 1013.3
20260503234211 7 131 0.0 0.0 0.00 0.05 0.05 54 1013.3
20260503233708 7 131 0.0 0.0 0.00 0.05 0.05 56 1013.3
20260503233203 7 131 0.0 0.0 0.00 0.05 0.05 58 1013.2
20260503232700 8 131 0.0 0.0 0.00 0.05 0.05 51 1013.2
20260503232157 8 131 1.6 1.6 0.00 0.05 0.05 49 1013.2
20260503231656 8 131 0.0 0.0 0.00 0.05 0.05 49 1012.9
20260503231151 8 131 1.6 1.6 0.00 0.05 0.05 45 1013.1
20260503230648 8 131 0.0 0.0 0.00 0.05 0.05 53 1012.9
20260503230146 8 131 1.6 1.6 0.00 0.05 0.05 49 1012.9
20260503225643 8 131 0.0 0.0 0.00 0.05 0.05 50 1012.8
20260503225143 9 131 0.0 0.0 0.00 0.05 0.05 48 1012.9
20260503224640 9 131 0.0 0.0 0.00 0.05 0.05 43 1012.7
20260503224137 9 131 1.6 1.6 0.00 0.05 0.05 43 1012.8
20260503223635 9 131 0.0 0.0 0.00 0.05 0.05 42 1012.7
20260503223131 9 131 1.6 1.6 0.00 0.05 0.05 42 1012.7
20260503222629 9 131 1.6 1.6 0.00 0.05 0.05 42 1012.7
20260503222126 9 131 1.6 1.6 0.00 0.05 0.05 42 1012.7
20260503221625 9 131 3.2 3.2 0.00 0.05 0.05 41 1012.6
20260503221122 10 131 1.6 1.6 0.00 0.05 0.05 43 1012.6
20260503220618 10 131 1.6 1.6 0.00 0.05 0.05 43 1012.4
20260503220115 10 131 1.6 1.6 0.00 0.05 0.05 41 1012.4
20260503215612 10 131 1.6 1.6 0.00 0.05 0.05 40 1012.3
20260503215108 10 131 1.6 1.6 0.00 0.05 0.05 39 1012.4
20260503214607 10 131 3.2 3.2 0.00 0.05 0.05 39 1012.4
20260503214103 10 132 1.6 3.2 0.00 0.05 0.05 38 1012.2
20260503213602 10 132 3.2 4.8 0.00 0.05 0.05 40 1012.2
20260503213058 10 131 0.0 1.6 0.00 0.05 0.05 41 1012.0